Location: downtown San Diego
(32.7310°N, 117.1990°W)
Time: 06:56:32
(UTC-07:00)

Cosmos 1953 - Pass Details

Date: 14 June 2018
Orbit: 539 x 560 km, 82.5° (Epoch: 22 September)

Event Time Altitude Azimuth Distance (km) Brightness Sun altitude
Rises 20:59:48 0° 6° (N) 2,701 6.3 -11.7°
Reaches altitude 10° 21:02:10 10° 18° (NNE) 1,807 5.2 -12.1°
Maximum altitude 21:05:39 29° 79° (E) 1,018 3.3 -12.7°
Enters shadow 21:07:24 21° 121° (ESE) 1,267 3.5 -13.0°
